Regional Weather Roundup
Issued by NWS Sterling, VA

Home | Current Version | Previous Version | Graphics & Text | Print | Product List | Glossary On
Versions: 1 2 3 4 5 6 7 8 9 10 11 12 13 14 15 16 17 18 19 20 21 22 23 24 25 26 27 28
000
ASUS41 KLWX 270011
RWRLWX

REGIONAL WEATHER ROUNDUP
NATIONAL WEATHER SERVICE BALTIMORE MD/WASHINGTON DC
800 PM EDT WED APR 26 2017

Note: "FAIR" indicates few or no clouds below 12,000 feet
with no significant weather and/or obstructions to visibility.
 TC=TEMPERATURE CELSIUS

 * =Non NWS site. Station does not report precipitation (e.g. rain,
    snow, etc.), thunder, or fog.

DCZ001-MDZ009-015-VAZ040>042-051-053>054-270100-
WASHINGTON METRO

CITY           SKY/WX    TMP DP  RH WIND       PRES   REMARKS
WASHINGTON NAT MOCLDY    67  59  75 E7        29.80R
DULLES         PTCLDY    67  57  70 E7        29.78S
ANDREWS AFB    CLEAR     62  58  86 SE6       29.80R
FT BELVOIR     CLEAR     65  59  79 CALM      29.79R
QUANTICO       PTCLDY    68  63  84 SE5       29.80R
COLLEGE PARK*  CLEAR     63  58  83 CALM      29.80R
LEESBURG*      CLEAR     68  61  77 E6        29.80S
MANASSAS*        N/A     67  59  75 SE7       29.79R

$$

MDZ006>007-011-014-270100-
BALTIMORE METRO

CITY           SKY/WX    TMP DP  RH WIND       PRES   REMARKS
BWI AIRPORT    MOCLDY    64  60  87 S3        29.80R
MD SCIENCE CTR   N/A     64  56  75 MISG      29.80R
MARTIN STATE   CLOUDY    63  61  94 CALM      29.82R
ANNAPOLIS      CLOUDY    63  59  87 SE3       29.80R
FORT MEADE*    MOCLDY    61  57  88 CALM      29.83R

$$

MDZ012-015-019>023-270100-
MARYLAND EASTERN SHORE

CITY           SKY/WX    TMP DP  RH WIND       PRES   REMARKS
OCEAN CITY     CLOUDY    54  54 100 SW5       29.83R FOG
SALISBURY      MOCLDY    60  59  96 E3        29.81R
BAY BRIDGE AP* CLOUDY    63  57  82 S3        29.81R
CAMBRIDGE*     PTCLDY    61  59  94 SW3       29.82R
EASTON*        MOCLDY    64  57  77 CALM      29.85R

$$

MDZ017>025-270100-
SOUTHERN MARYLAND

CITY           SKY/WX    TMP DP  RH WIND       PRES   REMARKS
PATUXENT RIVER PTCLDY    61  59  93 CALM      29.81R
ST INIGOES     CLEAR     62  58  86 SE5       29.81R
LEONARDTOWN*   CLEAR     61  55  82 CALM      29.83R

$$

MDZ003>005-270100-
NORTH CENTRAL MARYLAND

CITY           SKY/WX    TMP DP  RH WIND       PRES   REMARKS
FREDERICK*     PTCLDY    66  63  88 SE5       29.81R
HAGERSTOWN APT CLEAR     69  59  70 S5        29.78R
WESTMINSTER*   CLOUDY    64  59  82 S6        29.80S

$$

MDZ501>502-270100-
WESTERN MARYLAND

CITY           SKY/WX    TMP DP  RH WIND       PRES   REMARKS
OAKLAND*       CLEAR     63  55  77 SE9       29.81F
CUMBERLAND*    CLEAR     73  55  53 E3        29.79S

$$

VAZ025>031-270100-
SHENANDOAH VALLEY

CITY           SKY/WX    TMP DP  RH WIND       PRES   REMARKS
WINCHESTER*    CLEAR     66  59  77 E3        29.78R
FRONT ROYAL*   CLEAR     70  61  73 CALM      29.77R
LURAY*         CLEAR     70  61  73 N3        29.77R
NEW MARKET*    CLEAR     69  61  74 CALM      29.75R
STAUNTON*      CLEAR     72  59  63 SE5       29.79S
WAYNESBORO*    CLEAR     72  60  65 S7        29.79R

$$

WVZ021-048>050-054>055-270100-
EASTERN WEST VIRGINIA PANHANDLE

CITY           SKY/WX    TMP DP  RH WIND       PRES   REMARKS
MARTINSBURG    CLEAR     68  57  68 SE3       29.77R
PETERSBURG*    CLEAR     74  61  63 E5        29.75R

$$

VAZ036>039-050-270100-
CENTRAL FOOTHILLS

CITY           SKY/WX    TMP DP  RH WIND       PRES   REMARKS
CHARLOTTESVILL CLEAR     75  59  57 SE6       29.77R
CULPEPER*      CLEAR     69  63  83 CALM      29.79R
ORANGE*        CLEAR     70  59  68 CALM      29.78R
GORDONSVILLE*  PTCLDY    73  61  67 CALM      29.77S
WARRENTON*     CLEAR     69  58  67 E7        29.78S

$$

VAZ055>057-270100-
NORTH AND CENTRAL PIEDMONT

CITY           SKY/WX    TMP DP  RH WIND       PRES   REMARKS
FREDERICKSBRG* CLEAR     71  62  73 E5        29.78S
STAFFORD*      CLEAR     67  61  79 E3        29.82S

$$

NCZ024-NYZ072-PAZ021-071-VAZ022-071-270100-
OTHER REGIONAL OBSERVATIONS

CITY           SKY/WX    TMP DP  RH WIND       PRES   REMARKS
NEW YORK CITY  CLOUDY    59  58  96 NE3       29.82S FOG
PHILADELPHIA   CLOUDY    63  56  78 S3        29.80R
PITTSBURGH     MOCLDY    76  57  51 SE10      29.69S
ROANOKE        CLEAR     75  61  61 SE12      29.78S
RICHMOND       PTCLDY    71  60  68 SE5       29.79R
RALEIGH        PTCLDY    74  62  66 CALM      29.80S

$$

ANZ530>537-270100-
MARINE OBSERVATIONS

STATION/POSITION TIME  TEMP    WIND        PRES
                       AIR SEA DIR/SP/G
                 (UTC) (F)     (DEG/KT/KT) (MB)
THOMAS PT LIGHT  0000   60 57  130/  4/  4   N/A
BALT KEY BRIDGE  2348   62     120/  7/  8 1009.1R
COVE POINT       2348   61     200/  4/  4 1010.1R
LEWISETTA        2348   63 63  130/  5/  5 1009.2R
SOLOMONS ISLAND  2348   61 60  110/  3/  4   N/A
PINEY POINT      2348          150/  7/  8   N/A

$$





USA.gov is the U.S. government's official web portal to all federal, state and local government web resources and services.